INTELSAT 905 (IS-905) (27438 NORAD) Tracking and Keplerian Element Data

This shows tracking and keplerian element data for the satellite.

Feedback or suggestion? Click here.




ElementValue
Catalog27438
NameINTELSAT 905 (IS-905)
Epoch Orbit6048
Epoch Day349.54771789
Epoch Year2018
RAAN133.727
Inclination0.0321
Eccentricity0.0002825
Argument of Perigee93.1618
Mean Anonmoly29.9636
Mean Motion1.00271294
Decay Rate-1.71E-06
L11 27438U 02027A 18349.54771789 -.00000171 00000-0 00000+0 0 9997
L22 27438 0.0321 133.7270 0002825 93.1618 29.9636 1.00271294 60489

Live tracking and technical data element details for INTELSAT 905 (IS-905) (NORAD 27438). INTELSAT 905 (IS-905) can be tracked NOW for your location showing map with azimuth and elevation plus other details from your city location.

Track the satellite on the map from your city or location and see movement details for azimuth, elevation, latitude, longitude, range, height, and movement on the map or in text.







IsCatalogInMostPopularTable: catalog: 27438, numindb: 69
Update: records affected: 1



GetName: 27438 INTELSAT 905 (IS-905)

Hit Count: updated at: Sun, 16 Dec 2018 09:57:29 GMT